Time,TemperatureF,DewpointF,PressureIn,WindDirection,WindDirectionDegrees,WindSpeedMPH,WindSpeedGustMPH,Humidity,HourlyPrecipIn,Conditions,Clouds,dailyrainin,SoftwareType,DateUTC
2013-02-27 00:00:00,28.4,25.0,30.27,WNW,292,3.0,3.0,87,0.00,,---,0.00,VWS V13.00,2013-02-27 08:00:00,
2013-02-27 00:05:00,28.5,25.1,30.27,WNW,292,2.0,3.0,87,0.00,,---,0.00,VWS V13.00,2013-02-27 08:05:00,
2013-02-27 00:10:00,28.5,25.1,30.28,WNW,292,2.0,3.0,87,0.00,,---,0.00,VWS V13.00,2013-02-27 08:10:00,
2013-02-27 00:15:00,28.6,25.2,30.28,WNW,292,3.0,3.0,87,0.00,,---,0.00,VWS V13.00,2013-02-27 08:15:00,
2013-02-27 00:20:00,28.6,25.2,30.27,WNW,292,2.0,4.0,87,0.00,,---,0.00,VWS V13.00,2013-02-27 08:20:00,
2013-02-27 00:25:00,28.6,25.2,30.27,WNW,292,1.0,4.0,87,0.00,,---,0.00,VWS V13.00,2013-02-27 08:25:00,
2013-02-27 00:30:00,28.7,25.3,30.27,WNW,292,2.0,3.0,87,0.00,,---,0.00,VWS V13.00,2013-02-27 08:30:00,
2013-02-27 00:35:00,28.7,25.3,30.28,WNW,292,2.0,3.0,87,0.00,,---,0.00,VWS V13.00,2013-02-27 08:35:00,
2013-02-27 00:40:00,28.8,25.4,30.27,WNW,292,2.0,3.0,87,0.00,,---,0.00,VWS V13.00,2013-02-27 08:40:00,
2013-02-27 00:45:00,28.8,25.4,30.27,WNW,292,1.0,3.0,87,0.00,,---,0.00,VWS V13.00,2013-02-27 08:45:00,
2013-02-27 00:50:00,28.8,25.4,30.26,WNW,292,0.0,3.0,87,0.00,,---,0.00,VWS V13.00,2013-02-27 08:50:00,
2013-02-27 00:55:00,28.8,25.4,30.26,WNW,292,1.0,3.0,87,0.00,,---,0.00,VWS V13.00,2013-02-27 08:55:00,
2013-02-27 01:00:00,28.8,25.4,30.26,WNW,292,0.0,0.0,87,0.00,,---,0.00,VWS V13.00,2013-02-27 09:00:00,
2013-02-27 01:05:00,28.8,25.4,30.26,WNW,292,3.0,3.0,87,0.00,,---,0.00,VWS V13.00,2013-02-27 09:05:00,
2013-02-27 01:10:00,28.7,25.3,30.26,WNW,292,2.0,3.0,87,0.00,,---,0.00,VWS V13.00,2013-02-27 09:10:00,
2013-02-27 01:15:00,28.7,25.3,30.26,WNW,292,2.0,3.0,87,0.00,,---,0.00,VWS V13.00,2013-02-27 09:15:00,
2013-02-27 01:20:00,28.7,25.3,30.26,WNW,292,2.0,3.0,87,0.00,,---,0.00,VWS V13.00,2013-02-27 09:20:00,
2013-02-27 01:25:00,28.7,25.3,30.26,WNW,292,1.0,3.0,87,0.00,,---,0.00,VWS V13.00,2013-02-27 09:25:00,
2013-02-27 01:30:00,28.7,25.3,30.26,WNW,292,2.0,3.0,87,0.00,,---,0.00,VWS V13.00,2013-02-27 09:30:00,
2013-02-27 01:35:00,28.7,25.6,30.26,WNW,292,2.0,3.0,88,0.00,,---,0.00,VWS V13.00,2013-02-27 09:35:00,
2013-02-27 01:40:00,28.7,25.6,30.25,WNW,292,2.0,4.0,88,0.00,,---,0.00,VWS V13.00,2013-02-27 09:40:00,
2013-02-27 01:45:00,28.7,25.6,30.25,WNW,292,2.0,4.0,88,0.00,,---,0.00,VWS V13.00,2013-02-27 09:45:00,
2013-02-27 01:50:00,28.8,25.7,30.25,WNW,292,2.0,4.0,88,0.00,,---,0.00,VWS V13.00,2013-02-27 09:50:00,
2013-02-27 01:55:00,28.8,25.7,30.26,WNW,292,2.0,4.0,88,0.00,,---,0.00,VWS V13.00,2013-02-27 09:55:00,
2013-02-27 02:00:00,28.8,25.7,30.26,WNW,292,1.0,2.0,88,0.00,,---,0.00,VWS V13.00,2013-02-27 10:00:00,
2013-02-27 02:05:00,28.9,25.8,30.26,WNW,292,1.0,3.0,88,0.00,,---,0.00,VWS V13.00,2013-02-27 10:05:00,
2013-02-27 02:10:00,29.0,25.9,30.25,WNW,292,2.0,3.0,88,0.00,,---,0.00,VWS V13.00,2013-02-27 10:10:00,
2013-02-27 02:15:00,29.0,25.9,30.25,WNW,292,2.0,3.0,88,0.00,,---,0.00,VWS V13.00,2013-02-27 10:15:00,
2013-02-27 02:20:00,29.1,26.0,30.26,WNW,292,2.0,3.0,88,0.00,,---,0.00,VWS V13.00,2013-02-27 10:20:00,
2013-02-27 02:25:00,29.2,26.1,30.26,WNW,292,2.0,3.0,88,0.00,,---,0.00,VWS V13.00,2013-02-27 10:25:00,
2013-02-27 02:30:00,29.4,26.3,30.25,WNW,292,1.0,3.0,88,0.00,,---,0.00,VWS V13.00,2013-02-27 10:30:00,
2013-02-27 02:35:00,29.5,26.4,30.25,WNW,292,2.0,3.0,88,0.00,,---,0.00,VWS V13.00,2013-02-27 10:35:00,
2013-02-27 02:40:00,29.6,26.5,30.25,WNW,298,2.0,4.0,88,0.00,,---,0.00,VWS V13.00,2013-02-27 10:40:00,
2013-02-27 02:45:00,29.8,26.4,30.25,WNW,298,2.0,4.0,87,0.00,,---,0.00,VWS V13.00,2013-02-27 10:45:00,
2013-02-27 02:50:00,29.8,26.4,30.25,WNW,298,1.0,4.0,87,0.00,,---,0.00,VWS V13.00,2013-02-27 10:50:00,
2013-02-27 02:55:00,29.8,26.4,30.25,WNW,298,1.0,4.0,87,0.00,,---,0.00,VWS V13.00,2013-02-27 10:55:00,
2013-02-27 03:00:00,29.9,26.5,30.25,WNW,298,1.0,2.0,87,0.00,,---,0.00,VWS V13.00,2013-02-27 11:00:00,
2013-02-27 03:05:00,29.9,26.5,30.25,WNW,298,2.0,3.0,87,0.00,,---,0.00,VWS V13.00,2013-02-27 11:05:00,
2013-02-27 03:10:00,30.0,26.6,30.25,WNW,298,2.0,3.0,87,0.00,,---,0.00,VWS V13.00,2013-02-27 11:10:00,
2013-02-27 03:15:00,29.9,26.2,30.25,WNW,298,0.0,3.0,86,0.00,,---,0.00,VWS V13.00,2013-02-27 11:15:00,
2013-02-27 03:20:00,30.0,26.3,30.24,WNW,298,0.0,3.0,86,0.00,,---,0.00,VWS V13.00,2013-02-27 11:20:00,
2013-02-27 03:25:00,29.9,26.2,30.24,WNW,298,0.0,3.0,86,0.00,,---,0.00,VWS V13.00,2013-02-27 11:25:00,
2013-02-27 03:30:00,29.9,26.2,30.24,WNW,298,0.0,0.0,86,0.00,,---,0.00,VWS V13.00,2013-02-27 11:30:00,
2013-02-27 03:35:00,29.9,26.2,30.24,WNW,298,0.0,1.0,86,0.00,,---,0.00,VWS V13.00,2013-02-27 11:35:00,
2013-02-27 03:40:00,29.8,26.1,30.24,WNW,298,0.0,1.0,86,0.00,,---,0.00,VWS V13.00,2013-02-27 11:40:00,
2013-02-27 03:45:00,29.8,26.1,30.23,WNW,298,0.0,1.0,86,0.00,,---,0.00,VWS V13.00,2013-02-27 11:45:00,
2013-02-27 03:50:00,29.7,25.8,30.23,WNW,298,0.0,1.0,85,0.00,,---,0.00,VWS V13.00,2013-02-27 11:50:00,
2013-02-27 03:55:00,29.7,25.8,30.23,WNW,298,0.0,1.0,85,0.00,,---,0.00,VWS V13.00,2013-02-27 11:55:00,
2013-02-27 04:00:00,29.6,25.6,30.23,WNW,298,0.0,2.0,85,0.00,,---,0.00,VWS V13.00,2013-02-27 12:00:00,
2013-02-27 04:05:00,29.5,25.8,30.23,WNW,298,1.0,2.0,86,0.00,,---,0.00,VWS V13.00,2013-02-27 12:05:00,
2013-02-27 04:10:00,29.4,25.7,30.23,WNW,298,2.0,2.0,86,0.00,,---,0.00,VWS V13.00,2013-02-27 12:10:00,
2013-02-27 04:15:00,29.4,25.7,30.24,WNW,298,2.0,3.0,86,0.00,,---,0.00,VWS V13.00,2013-02-27 12:15:00,
2013-02-27 04:20:00,29.4,25.7,30.23,WNW,298,1.0,3.0,86,0.00,,---,0.00,VWS V13.00,2013-02-27 12:20:00,
2013-02-27 04:25:00,29.3,25.9,30.24,WNW,298,1.0,3.0,87,0.00,,---,0.00,VWS V13.00,2013-02-27 12:25:00,
2013-02-27 04:30:00,29.3,25.9,30.24,WNW,298,2.0,2.0,87,0.00,,---,0.00,VWS V13.00,2013-02-27 12:30:00,
2013-02-27 04:35:00,29.3,25.9,30.24,WNW,298,1.0,3.0,87,0.00,,---,0.00,VWS V13.00,2013-02-27 12:35:00,
2013-02-27 04:40:00,29.3,25.9,30.24,WNW,298,1.0,3.0,87,0.00,,---,0.00,VWS V13.00,2013-02-27 12:40:00,
2013-02-27 04:45:00,29.4,26.0,30.24,WNW,298,2.0,3.0,87,0.00,,---,0.00,VWS V13.00,2013-02-27 12:45:00,
2013-02-27 04:50:00,29.4,26.0,30.24,WNW,298,3.0,3.0,87,0.00,,---,0.00,VWS V13.00,2013-02-27 12:50:00,
2013-02-27 04:55:00,29.4,26.0,30.25,WNW,298,2.0,4.0,87,0.00,,---,0.00,VWS V13.00,2013-02-27 12:55:00,
2013-02-27 05:00:00,29.4,26.0,30.25,WNW,298,2.0,2.0,87,0.00,,---,0.00,VWS V13.00,2013-02-27 13:00:00,
2013-02-27 05:05:00,29.4,26.0,30.26,WNW,298,1.0,3.0,87,0.00,,---,0.00,VWS V13.00,2013-02-27 13:05:00,
2013-02-27 05:10:00,29.4,26.0,30.26,WNW,298,2.0,3.0,87,0.00,,---,0.00,VWS V13.00,2013-02-27 13:10:00,
2013-02-27 05:15:00,29.4,26.0,30.26,WNW,298,1.0,3.0,87,0.00,,---,0.00,VWS V13.00,2013-02-27 13:15:00,
2013-02-27 05:20:00,29.4,26.0,30.26,WNW,298,1.0,3.0,87,0.00,,---,0.00,VWS V13.00,2013-02-27 13:20:00,
2013-02-27 05:25:00,29.4,26.0,30.26,WNW,298,2.0,3.0,87,0.00,,---,0.00,VWS V13.00,2013-02-27 13:25:00,
2013-02-27 05:30:00,29.5,26.1,30.26,WNW,298,2.0,2.0,87,0.00,,---,0.00,VWS V13.00,2013-02-27 13:30:00,
2013-02-27 05:35:00,29.5,26.1,30.26,WNW,298,0.0,2.0,87,0.00,,---,0.00,VWS V13.00,2013-02-27 13:35:00,
2013-02-27 05:40:00,29.6,26.2,30.25,WNW,298,0.0,2.0,87,0.00,,---,0.00,VWS V13.00,2013-02-27 13:40:00,
2013-02-27 05:45:00,29.6,26.2,30.25,WNW,298,0.0,2.0,87,0.00,,---,0.00,VWS V13.00,2013-02-27 13:45:00,
2013-02-27 05:50:00,29.6,26.2,30.26,WNW,298,0.0,2.0,87,0.00,,---,0.00,VWS V13.00,2013-02-27 13:50:00,
2013-02-27 05:55:00,29.6,26.2,30.25,WNW,298,0.0,2.0,87,0.00,,---,0.00,VWS V13.00,2013-02-27 13:55:00,
2013-02-27 06:00:00,29.6,26.2,30.26,WNW,298,0.0,0.0,87,0.00,,---,0.00,VWS V13.00,2013-02-27 14:00:00,
2013-02-27 06:05:00,29.6,26.2,30.26,WNW,298,0.0,0.0,87,0.00,,---,0.00,VWS V13.00,2013-02-27 14:05:00,
2013-02-27 06:10:00,29.6,26.2,30.26,WNW,298,0.0,0.0,87,0.00,,---,0.00,VWS V13.00,2013-02-27 14:10:00,
2013-02-27 06:15:00,29.6,26.2,30.26,WNW,298,0.0,1.0,87,0.00,,---,0.00,VWS V13.00,2013-02-27 14:15:00,
2013-02-27 06:20:00,29.6,26.2,30.26,WNW,298,0.0,1.0,87,0.00,,---,0.00,VWS V13.00,2013-02-27 14:20:00,
2013-02-27 06:25:00,29.6,26.2,30.26,WNW,298,1.0,1.0,87,0.00,,---,0.00,VWS V13.00,2013-02-27 14:25:00,
2013-02-27 06:30:00,29.5,26.1,30.26,WNW,298,0.0,0.0,87,0.00,,---,0.00,VWS V13.00,2013-02-27 14:30:00,
2013-02-27 06:35:00,29.5,26.1,30.26,WNW,298,0.0,2.0,87,0.00,,---,0.00,VWS V13.00,2013-02-27 14:35:00,
2013-02-27 06:40:00,29.4,26.0,30.27,WNW,298,0.0,2.0,87,0.00,,---,0.00,VWS V13.00,2013-02-27 14:40:00,
2013-02-27 06:45:00,29.3,25.9,30.27,WNW,298,0.0,2.0,87,0.00,,---,0.00,VWS V13.00,2013-02-27 14:45:00,
2013-02-27 06:50:00,29.2,25.5,30.26,WNW,298,0.0,2.0,86,0.00,,---,0.00,VWS V13.00,2013-02-27 14:50:00,
2013-02-27 06:55:00,29.0,25.4,30.27,WNW,298,0.0,2.0,86,0.00,,---,0.00,VWS V13.00,2013-02-27 14:55:00,
2013-02-27 07:00:00,28.9,25.5,30.27,WNW,298,0.0,0.0,87,0.00,,---,0.00,VWS V13.00,2013-02-27 15:00:00,
2013-02-27 07:05:00,28.8,25.4,30.28,WNW,298,0.0,0.0,87,0.00,,---,0.00,VWS V13.00,2013-02-27 15:05:00,
2013-02-27 07:10:00,28.7,25.3,30.28,WNW,298,0.0,1.0,87,0.00,,---,0.00,VWS V13.00,2013-02-27 15:10:00,
2013-02-27 07:15:00,28.6,25.2,30.28,WNW,298,1.0,2.0,87,0.00,,---,0.00,VWS V13.00,2013-02-27 15:15:00,
2013-02-27 07:20:00,28.5,25.1,30.28,WNW,298,0.0,2.0,87,0.00,,---,0.00,VWS V13.00,2013-02-27 15:20:00,
2013-02-27 07:25:00,28.4,25.0,30.29,WNW,298,2.0,2.0,87,0.00,,---,0.00,VWS V13.00,2013-02-27 15:25:00,
2013-02-27 07:30:00,28.3,24.9,30.29,WNW,298,0.0,1.0,87,0.00,,---,0.00,VWS V13.00,2013-02-27 15:30:00,
2013-02-27 07:35:00,28.3,25.2,30.29,WNW,298,0.0,3.0,88,0.00,,---,0.00,VWS V13.00,2013-02-27 15:35:00,
2013-02-27 07:40:00,28.3,25.2,30.29,WNW,298,1.0,3.0,88,0.00,,---,0.00,VWS V13.00,2013-02-27 15:40:00,
2013-02-27 07:45:00,28.3,25.2,30.29,WNW,298,2.0,3.0,88,0.00,,---,0.00,VWS V13.00,2013-02-27 15:45:00,
2013-02-27 07:50:00,28.4,25.6,30.29,WNW,298,1.0,3.0,89,0.00,,---,0.00,VWS V13.00,2013-02-27 15:50:00,
2013-02-27 07:55:00,28.6,25.8,30.29,WNW,298,1.0,3.0,89,0.00,,---,0.00,VWS V13.00,2013-02-27 15:55:00,
2013-02-27 08:00:00,28.8,26.0,30.30,WNW,298,1.0,2.0,89,0.00,,---,0.00,VWS V13.00,2013-02-27 16:00:00,
2013-02-27 08:05:00,28.9,26.1,30.30,WNW,298,0.0,2.0,89,0.00,,---,0.00,VWS V13.00,2013-02-27 16:05:00,
2013-02-27 08:10:00,29.0,26.2,30.30,WNW,298,0.0,2.0,89,0.00,,---,0.00,VWS V13.00,2013-02-27 16:10:00,
2013-02-27 08:15:00,29.1,26.3,30.30,WNW,298,0.0,2.0,89,0.00,,---,0.00,VWS V13.00,2013-02-27 16:15:00,
2013-02-27 08:20:00,29.3,26.5,30.30,WNW,298,0.0,2.0,89,0.00,,---,0.00,VWS V13.00,2013-02-27 16:20:00,
2013-02-27 08:25:00,29.3,26.5,30.30,WNW,298,0.0,2.0,89,0.00,,---,0.00,VWS V13.00,2013-02-27 16:25:00,
2013-02-27 08:30:00,29.5,26.7,30.31,WNW,298,0.0,0.0,89,0.00,,---,0.00,VWS V13.00,2013-02-27 16:30:00,
2013-02-27 08:35:00,29.6,26.8,30.30,WNW,298,0.0,1.0,89,0.00,,---,0.00,VWS V13.00,2013-02-27 16:35:00,
2013-02-27 08:40:00,30.0,27.2,30.30,WNW,298,0.0,1.0,89,0.00,,---,0.00,VWS V13.00,2013-02-27 16:40:00,
2013-02-27 08:45:00,30.5,27.9,30.30,WNW,298,0.0,1.0,90,0.00,,---,0.00,VWS V13.00,2013-02-27 16:45:00,
2013-02-27 08:50:00,30.7,28.1,30.30,WNW,298,0.0,1.0,90,0.00,,---,0.00,VWS V13.00,2013-02-27 16:50:00,
2013-02-27 08:55:00,31.1,28.5,30.30,WNW,298,0.0,1.0,90,0.00,,---,0.00,VWS V13.00,2013-02-27 16:55:00,
2013-02-27 09:00:00,31.4,28.5,30.30,WNW,298,0.0,0.0,89,0.00,,---,0.00,VWS V13.00,2013-02-27 17:00:00,
2013-02-27 09:05:00,31.7,28.8,30.30,WNW,298,0.0,2.0,89,0.00,,---,0.00,VWS V13.00,2013-02-27 17:05:00,
2013-02-27 09:10:00,32.0,28.9,30.30,WNW,298,0.0,2.0,88,0.00,,---,0.00,VWS V13.00,2013-02-27 17:10:00,
2013-02-27 09:15:00,32.1,28.7,30.31,WNW,298,0.0,2.0,87,0.00,,---,0.00,VWS V13.00,2013-02-27 17:15:00,
2013-02-27 09:20:00,32.3,28.6,30.31,WNW,298,1.0,3.0,86,0.00,,---,0.00,VWS V13.00,2013-02-27 17:20:00,
2013-02-27 09:25:00,32.4,28.7,30.31,WNW,298,0.0,3.0,86,0.00,,---,0.00,VWS V13.00,2013-02-27 17:25:00,
2013-02-27 09:30:00,32.5,28.8,30.31,WNW,298,0.0,0.0,86,0.00,,---,0.00,VWS V13.00,2013-02-27 17:30:00,
2013-02-27 09:35:00,32.8,29.1,30.31,WNW,298,0.0,2.0,86,0.00,,---,0.00,VWS V13.00,2013-02-27 17:35:00,
2013-02-27 09:40:00,33.1,29.1,30.31,WNW,298,0.0,2.0,85,0.00,,---,0.00,VWS V13.00,2013-02-27 17:40:00,
2013-02-27 09:45:00,33.4,29.1,30.31,WNW,298,0.0,3.0,84,0.00,,---,0.00,VWS V13.00,2013-02-27 17:45:00,
2013-02-27 09:50:00,33.9,28.7,30.31,WNW,298,2.0,3.0,81,0.00,,---,0.00,VWS V13.00,2013-02-27 17:50:00,
2013-02-27 09:55:00,34.4,29.5,30.30,WNW,298,0.0,3.0,82,0.00,,---,0.00,VWS V13.00,2013-02-27 17:55:00,
2013-02-27 10:00:00,35.5,30.0,30.30,WNW,298,0.0,2.0,80,0.00,,---,0.00,VWS V13.00,2013-02-27 18:00:00,
2013-02-27 10:05:00,36.9,31.6,30.30,WNW,298,0.0,2.0,81,0.00,,---,0.00,VWS V13.00,2013-02-27 18:05:00,
2013-02-27 10:10:00,38.3,31.7,30.30,WNW,298,0.0,2.0,77,0.00,,---,0.00,VWS V13.00,2013-02-27 18:10:00,
2013-02-27 10:15:00,39.4,31.1,30.29,WNW,299,1.0,2.0,72,0.00,,---,0.00,VWS V13.00,2013-02-27 18:15:00,
2013-02-27 10:20:00,40.2,31.2,30.29,SE,134,5.0,5.0,70,0.00,,---,0.00,VWS V13.00,2013-02-27 18:20:00,
2013-02-27 10:25:00,40.7,31.0,30.28,SE,140,1.0,5.0,68,0.00,,---,0.00,VWS V13.00,2013-02-27 18:25:00,
2013-02-27 10:30:00,41.4,31.3,30.28,SE,140,0.0,1.0,67,0.00,,---,0.00,VWS V13.00,2013-02-27 18:30:00,
2013-02-27 10:35:00,41.9,32.1,30.28,SSE,152,3.0,5.0,68,0.00,,---,0.00,VWS V13.00,2013-02-27 18:35:00,
2013-02-27 10:40:00,42.2,30.9,30.28,SE,136,2.0,6.0,64,0.00,,---,0.00,VWS V13.00,2013-02-27 18:40:00,
2013-02-27 10:45:00,42.5,31.2,30.28,ESE,119,0.0,6.0,64,0.00,,---,0.00,VWS V13.00,2013-02-27 18:45:00,
2013-02-27 10:50:00,43.1,31.4,30.28,ESE,108,2.0,6.0,63,0.00,,---,0.00,VWS V13.00,2013-02-27 18:50:00,
2013-02-27 10:55:00,43.4,31.3,30.28,East,91,2.0,6.0,62,0.00,,---,0.00,VWS V13.00,2013-02-27 18:55:00,
2013-02-27 11:00:00,43.6,31.0,30.28,ESE,122,2.0,3.0,61,0.00,,---,0.00,VWS V13.00,2013-02-27 19:00:00,
2013-02-27 11:05:00,43.9,30.9,30.28,SE,133,0.0,5.0,60,0.00,,---,0.00,VWS V13.00,2013-02-27 19:05:00,
2013-02-27 11:10:00,44.8,31.8,30.28,SE,133,0.0,5.0,60,0.00,,---,0.00,VWS V13.00,2013-02-27 19:10:00,
2013-02-27 11:15:00,45.2,30.9,30.28,ESE,111,3.0,5.0,57,0.00,,---,0.00,VWS V13.00,2013-02-27 19:15:00,
2013-02-27 11:20:00,45.4,31.9,30.28,West,271,2.0,5.0,59,0.00,,---,0.00,VWS V13.00,2013-02-27 19:20:00,
2013-02-27 11:25:00,45.9,31.5,30.27,ESE,119,1.0,7.0,57,0.00,,---,0.00,VWS V13.00,2013-02-27 19:25:00,
2013-02-27 11:30:00,45.5,30.7,30.27,East,99,3.0,9.0,56,0.00,,---,0.00,VWS V13.00,2013-02-27 19:30:00,
2013-02-27 11:35:00,45.0,30.3,30.28,SE,132,8.0,9.0,56,0.00,,---,0.00,VWS V13.00,2013-02-27 19:35:00,
2013-02-27 11:40:00,44.8,30.5,30.28,SSW,202,3.0,9.0,57,0.00,,---,0.00,VWS V13.00,2013-02-27 19:40:00,
2013-02-27 11:45:00,44.7,30.0,30.28,SSE,161,4.0,9.0,56,0.00,,---,0.00,VWS V13.00,2013-02-27 19:45:00,
2013-02-27 11:50:00,44.6,29.9,30.28,SSW,200,0.0,9.0,56,0.00,,---,0.00,VWS V13.00,2013-02-27 19:50:00,
2013-02-27 11:55:00,44.6,29.9,30.28,SW,226,2.0,9.0,56,0.00,,---,0.00,VWS V13.00,2013-02-27 19:55:00,
2013-02-27 12:00:00,44.5,29.8,30.27,South,180,5.0,5.0,56,0.00,,---,0.00,VWS V13.00,2013-02-27 20:00:00,
2013-02-27 12:05:00,44.5,30.2,30.27,WSW,254,2.0,7.0,57,0.00,,---,0.00,VWS V13.00,2013-02-27 20:05:00,
2013-02-27 12:10:00,45.4,30.2,30.27,SE,138,3.0,7.0,55,0.00,,---,0.00,VWS V13.00,2013-02-27 20:10:00,
2013-02-27 12:15:00,46.3,31.5,30.27,WSW,252,3.0,9.0,56,0.00,,---,0.00,VWS V13.00,2013-02-27 20:15:00,
2013-02-27 12:20:00,46.7,30.0,30.26,South,184,1.0,9.0,52,0.00,,---,0.00,VWS V13.00,2013-02-27 20:20:00,
2013-02-27 12:25:00,47.2,31.4,30.26,SSE,163,3.0,10.0,54,0.00,,---,0.00,VWS V13.00,2013-02-27 20:25:00,
2013-02-27 12:30:00,47.7,31.4,30.26,SW,221,2.0,4.0,53,0.00,,---,0.00,VWS V13.00,2013-02-27 20:30:00,
2013-02-27 12:35:00,47.6,30.4,30.25,SW,214,5.0,11.0,51,0.00,,---,0.00,VWS V13.00,2013-02-27 20:35:00,
2013-02-27 12:40:00,47.3,30.6,30.25,SSE,152,6.0,11.0,52,0.00,,---,0.00,VWS V13.00,2013-02-27 20:40:00,
2013-02-27 12:45:00,46.3,29.6,30.26,SE,137,7.0,12.0,52,0.00,,---,0.00,VWS V13.00,2013-02-27 20:45:00,
2013-02-27 12:50:00,45.8,30.1,30.26,ESE,118,0.0,12.0,54,0.00,,---,0.00,VWS V13.00,2013-02-27 20:50:00,
2013-02-27 12:55:00,46.6,31.3,30.26,South,186,1.0,12.0,55,0.00,,---,0.00,VWS V13.00,2013-02-27 20:55:00,
2013-02-27 13:00:00,46.9,29.2,30.26,SE,138,3.0,7.0,50,0.00,,---,0.00,VWS V13.00,2013-02-27 21:00:00,
2013-02-27 13:05:00,46.4,28.3,30.26,SSE,156,0.0,9.0,49,0.00,,---,0.00,VWS V13.00,2013-02-27 21:05:00,
2013-02-27 13:10:00,46.8,29.6,30.26,WSW,240,6.0,11.0,51,0.00,,---,0.00,VWS V13.00,2013-02-27 21:10:00,
2013-02-27 13:15:00,46.4,28.3,30.26,South,186,6.0,11.0,49,0.00,,---,0.00,VWS V13.00,2013-02-27 21:15:00,
2013-02-27 13:20:00,46.6,28.5,30.26,West,265,5.0,11.0,49,0.00,,---,0.00,VWS V13.00,2013-02-27 21:20:00,
2013-02-27 13:25:00,46.5,28.9,30.26,SW,236,4.0,11.0,50,0.00,,---,0.00,VWS V13.00,2013-02-27 21:25:00,
2013-02-27 13:30:00,46.5,28.9,30.25,WSW,238,2.0,4.0,50,0.00,,---,0.00,VWS V13.00,2013-02-27 21:30:00,
2013-02-27 13:35:00,46.1,28.5,30.26,South,180,6.0,7.0,50,0.00,,---,0.00,VWS V13.00,2013-02-27 21:35:00,
2013-02-27 13:40:00,46.0,27.9,30.26,South,175,7.0,12.0,49,0.00,,---,0.00,VWS V13.00,2013-02-27 21:40:00,
2013-02-27 13:45:00,45.7,27.6,30.26,SSE,158,2.0,12.0,49,0.00,,---,0.00,VWS V13.00,2013-02-27 21:45:00,
2013-02-27 13:50:00,45.5,27.0,30.26,SSW,202,3.0,14.0,48,0.00,,---,0.00,VWS V13.00,2013-02-27 21:50:00,
2013-02-27 13:55:00,46.0,26.9,30.27,SSW,192,5.0,14.0,47,0.00,,---,0.00,VWS V13.00,2013-02-27 21:55:00,
2013-02-27 14:00:00,46.3,28.2,30.26,West,273,5.0,6.0,49,0.00,,---,0.00,VWS V13.00,2013-02-27 22:00:00,
2013-02-27 14:05:00,46.3,28.2,30.27,West,272,8.0,8.0,49,0.00,,---,0.00,VWS V13.00,2013-02-27 22:05:00,
2013-02-27 14:10:00,46.0,28.4,30.27,SSE,150,3.0,10.0,50,0.00,,---,0.00,VWS V13.00,2013-02-27 22:10:00,
2013-02-27 14:15:00,45.7,27.6,30.27,SW,218,3.0,10.0,49,0.00,,---,0.00,VWS V13.00,2013-02-27 22:15:00,
2013-02-27 14:20:00,45.9,27.3,30.27,SSW,197,2.0,10.0,48,0.00,,---,0.00,VWS V13.00,2013-02-27 22:20:00,
2013-02-27 14:25:00,45.5,27.5,30.27,SSE,157,4.0,11.0,49,0.00,,---,0.00,VWS V13.00,2013-02-27 22:25:00,
2013-02-27 14:30:00,45.3,27.8,30.28,SSE,155,4.0,7.0,50,0.00,,---,0.00,VWS V13.00,2013-02-27 22:30:00,
2013-02-27 14:35:00,44.8,25.8,30.29,SSE,155,1.0,10.0,47,0.00,,---,0.00,VWS V13.00,2013-02-27 22:35:00,
2013-02-27 14:40:00,44.7,25.7,30.28,South,185,3.0,10.0,47,0.00,,---,0.00,VWS V13.00,2013-02-27 22:40:00,
2013-02-27 14:45:00,44.6,26.1,30.28,SSW,208,2.0,10.0,48,0.00,,---,0.00,VWS V13.00,2013-02-27 22:45:00,
2013-02-27 14:50:00,44.7,25.7,30.28,SSW,197,1.0,12.0,47,0.00,,---,0.00,VWS V13.00,2013-02-27 22:50:00,
2013-02-27 14:55:00,44.7,25.7,30.28,SW,218,6.0,12.0,47,0.00,,---,0.00,VWS V13.00,2013-02-27 22:55:00,
2013-02-27 15:00:00,44.6,26.6,30.28,SSE,163,3.0,4.0,49,0.00,,---,0.00,VWS V13.00,2013-02-27 23:00:00,
2013-02-27 15:05:00,45.4,25.9,30.28,South,173,7.0,12.0,46,0.00,,---,0.00,VWS V13.00,2013-02-27 23:05:00,
2013-02-27 15:10:00,45.6,27.1,30.27,SSW,209,2.0,12.0,48,0.00,,---,0.00,VWS V13.00,2013-02-27 23:10:00,
2013-02-27 15:15:00,45.7,26.1,30.27,SW,224,3.0,12.0,46,0.00,,---,0.00,VWS V13.00,2013-02-27 23:15:00,
2013-02-27 15:20:00,45.1,26.1,30.27,SW,232,1.0,12.0,47,0.00,,---,0.00,VWS V13.00,2013-02-27 23:20:00,
2013-02-27 15:25:00,45.1,26.1,30.27,SSE,155,2.0,12.0,47,0.00,,---,0.00,VWS V13.00,2013-02-27 23:25:00,
2013-02-27 15:30:00,45.0,26.0,30.27,SSE,155,2.0,3.0,47,0.00,,---,0.00,VWS V13.00,2013-02-27 23:30:00,
2013-02-27 15:35:00,45.0,27.0,30.26,SSE,155,2.0,4.0,49,0.00,,---,0.00,VWS V13.00,2013-02-27 23:35:00,
2013-02-27 15:40:00,44.9,26.9,30.26,SSE,150,3.0,7.0,49,0.00,,---,0.00,VWS V13.00,2013-02-27 23:40:00,
2013-02-27 15:45:00,44.8,26.8,30.26,SE,144,4.0,7.0,49,0.00,,---,0.00,VWS V13.00,2013-02-27 23:45:00,
2013-02-27 15:50:00,44.5,26.5,30.26,South,191,0.0,7.0,49,0.00,,---,0.00,VWS V13.00,2013-02-27 23:50:00,
2013-02-27 15:55:00,44.3,26.4,30.27,South,177,5.0,7.0,49,0.00,,---,0.00,VWS V13.00,2013-02-27 23:55:00,
2013-02-27 16:00:00,44.2,26.8,30.27,SSE,165,1.0,2.0,50,0.00,,---,0.00,VWS V13.00,2013-02-28 00:00:00,
2013-02-27 16:05:00,44.0,27.0,30.27,SSE,165,0.0,3.0,51,0.00,,---,0.00,VWS V13.00,2013-02-28 00:05:00,
2013-02-27 16:10:00,44.0,27.0,30.27,SSE,165,0.0,3.0,51,0.00,,---,0.00,VWS V13.00,2013-02-28 00:10:00,
2013-02-27 16:15:00,44.0,27.0,30.27,SSE,165,1.0,3.0,51,0.00,,---,0.00,VWS V13.00,2013-02-28 00:15:00,
2013-02-27 16:20:00,44.0,27.5,30.27,SSE,165,0.0,3.0,52,0.00,,---,0.00,VWS V13.00,2013-02-28 00:20:00,
2013-02-27 16:25:00,44.0,28.0,30.28,SSE,165,1.0,3.0,53,0.00,,---,0.00,VWS V13.00,2013-02-28 00:25:00,
2013-02-27 16:30:00,43.9,28.4,30.28,SSE,165,0.0,1.0,54,0.00,,---,0.00,VWS V13.00,2013-02-28 00:30:00,
2013-02-27 16:35:00,43.9,28.4,30.28,SSE,165,3.0,3.0,54,0.00,,---,0.00,VWS V13.00,2013-02-28 00:35:00,
2013-02-27 16:40:00,43.9,27.9,30.28,SSW,202,0.0,5.0,53,0.00,,---,0.00,VWS V13.00,2013-02-28 00:40:00,
2013-02-27 16:45:00,43.7,27.2,30.28,South,188,3.0,5.0,52,0.00,,---,0.00,VWS V13.00,2013-02-28 00:45:00,
2013-02-27 16:50:00,43.6,27.6,30.28,South,187,4.0,5.0,53,0.00,,---,0.00,VWS V13.00,2013-02-28 00:50:00,
2013-02-27 16:55:00,43.5,27.5,30.28,South,183,0.0,5.0,53,0.00,,---,0.00,VWS V13.00,2013-02-28 00:55:00,
2013-02-27 17:00:00,43.4,27.4,30.28,South,183,0.0,0.0,53,0.00,,---,0.00,VWS V13.00,2013-02-28 01:00:00,
2013-02-27 17:05:00,43.4,27.4,30.28,South,183,0.0,2.0,53,0.00,,---,0.00,VWS V13.00,2013-02-28 01:05:00,
2013-02-27 17:10:00,43.5,27.1,30.28,South,183,0.0,3.0,52,0.00,,---,0.00,VWS V13.00,2013-02-28 01:10:00,
2013-02-27 17:15:00,43.5,27.1,30.28,South,183,0.0,3.0,52,0.00,,---,0.00,VWS V13.00,2013-02-28 01:15:00,
2013-02-27 17:20:00,43.4,27.4,30.28,South,183,0.0,3.0,53,0.00,,---,0.00,VWS V13.00,2013-02-28 01:20:00,
2013-02-27 17:25:00,43.4,27.0,30.28,South,183,0.0,3.0,52,0.00,,---,0.00,VWS V13.00,2013-02-28 01:25:00,
2013-02-27 17:30:00,43.3,26.9,30.28,South,183,0.0,0.0,52,0.00,,---,0.00,VWS V13.00,2013-02-28 01:30:00,
2013-02-27 17:35:00,43.2,26.8,30.27,South,183,0.0,0.0,52,0.00,,---,0.00,VWS V13.00,2013-02-28 01:35:00,
2013-02-27 17:40:00,43.0,26.6,30.28,South,183,0.0,0.0,52,0.00,,---,0.00,VWS V13.00,2013-02-28 01:40:00,
2013-02-27 17:45:00,42.8,26.4,30.28,South,183,0.0,2.0,52,0.00,,---,0.00,VWS V13.00,2013-02-28 01:45:00,
2013-02-27 17:50:00,42.6,26.2,30.28,South,183,1.0,2.0,52,0.00,,---,0.00,VWS V13.00,2013-02-28 01:50:00,
2013-02-27 17:55:00,42.5,26.1,30.28,South,183,1.0,2.0,52,0.00,,---,0.00,VWS V13.00,2013-02-28 01:55:00,
2013-02-27 18:00:00,42.3,27.3,30.29,South,183,0.0,0.0,55,0.00,,---,0.00,VWS V13.00,2013-02-28 02:00:00,
2013-02-27 18:05:00,42.0,27.5,30.28,South,183,1.0,2.0,56,0.00,,---,0.00,VWS V13.00,2013-02-28 02:05:00,
2013-02-27 18:10:00,41.6,27.5,30.28,South,183,1.0,3.0,57,0.00,,---,0.00,VWS V13.00,2013-02-28 02:10:00,
2013-02-27 18:15:00,41.3,27.6,30.28,South,183,0.0,3.0,58,0.00,,---,0.00,VWS V13.00,2013-02-28 02:15:00,
2013-02-27 18:20:00,41.0,27.4,30.28,South,183,0.0,3.0,58,0.00,,---,0.00,VWS V13.00,2013-02-28 02:20:00,
2013-02-27 18:25:00,40.7,27.5,30.28,South,183,0.0,3.0,59,0.00,,---,0.00,VWS V13.00,2013-02-28 02:25:00,
2013-02-27 18:30:00,40.3,27.5,30.28,South,183,0.0,1.0,60,0.00,,---,0.00,VWS V13.00,2013-02-28 02:30:00,
2013-02-27 18:35:00,39.9,27.6,30.28,South,183,0.0,1.0,61,0.00,,---,0.00,VWS V13.00,2013-02-28 02:35:00,
2013-02-27 18:40:00,39.6,27.3,30.28,South,183,1.0,2.0,61,0.00,,---,0.00,VWS V13.00,2013-02-28 02:40:00,
2013-02-27 18:45:00,39.2,27.3,30.28,South,183,0.0,2.0,62,0.00,,---,0.00,VWS V13.00,2013-02-28 02:45:00,
2013-02-27 18:50:00,38.7,27.2,30.28,South,183,2.0,2.0,63,0.00,,---,0.00,VWS V13.00,2013-02-28 02:50:00,
2013-02-27 18:55:00,38.3,27.2,30.29,South,184,2.0,2.0,64,0.00,,---,0.00,VWS V13.00,2013-02-28 02:55:00,
2013-02-27 19:00:00,37.9,27.2,30.28,South,184,0.0,2.0,65,0.00,,---,0.00,VWS V13.00,2013-02-28 03:00:00,
2013-02-27 19:05:00,37.6,27.3,30.28,South,184,0.0,2.0,66,0.00,,---,0.00,VWS V13.00,2013-02-28 03:05:00,
2013-02-27 19:10:00,37.4,27.5,30.28,South,183,2.0,3.0,67,0.00,,---,0.00,VWS V13.00,2013-02-28 03:10:00,
2013-02-27 19:15:00,37.0,27.4,30.28,South,183,0.0,3.0,68,0.00,,---,0.00,VWS V13.00,2013-02-28 03:15:00,
2013-02-27 19:20:00,36.7,27.1,30.28,South,184,2.0,3.0,68,0.00,,---,0.00,VWS V13.00,2013-02-28 03:20:00,
2013-02-27 19:25:00,36.4,27.6,30.29,South,184,1.0,3.0,70,0.00,,---,0.00,VWS V13.00,2013-02-28 03:25:00,
2013-02-27 19:30:00,36.1,27.6,30.29,South,183,1.0,2.0,71,0.00,,---,0.00,VWS V13.00,2013-02-28 03:30:00,
2013-02-27 19:35:00,35.8,27.3,30.29,South,184,2.0,3.0,71,0.00,,---,0.00,VWS V13.00,2013-02-28 03:35:00,
2013-02-27 19:40:00,35.5,27.4,30.28,South,184,2.0,3.0,72,0.00,,---,0.00,VWS V13.00,2013-02-28 03:40:00,
2013-02-27 19:45:00,35.3,27.5,30.29,South,184,2.0,3.0,73,0.00,,---,0.00,VWS V13.00,2013-02-28 03:45:00,
2013-02-27 19:50:00,35.1,27.3,30.29,South,183,1.0,3.0,73,0.00,,---,0.00,VWS V13.00,2013-02-28 03:50:00,
2013-02-27 19:55:00,34.9,27.5,30.29,South,183,1.0,3.0,74,0.00,,---,0.00,VWS V13.00,2013-02-28 03:55:00,
2013-02-27 20:00:00,34.7,27.3,30.29,WNW,288,3.0,3.0,74,0.00,,---,0.00,VWS V13.00,2013-02-28 04:00:00,
2013-02-27 20:05:00,34.5,27.1,30.28,WNW,288,1.0,3.0,74,0.00,,---,0.00,VWS V13.00,2013-02-28 04:05:00,
2013-02-27 20:10:00,34.4,27.3,30.29,WNW,288,2.0,3.0,75,0.00,,---,0.00,VWS V13.00,2013-02-28 04:10:00,
2013-02-27 20:15:00,34.4,27.3,30.29,WNW,287,1.0,3.0,75,0.00,,---,0.00,VWS V13.00,2013-02-28 04:15:00,
2013-02-27 20:20:00,34.4,27.3,30.29,WNW,287,0.0,3.0,75,0.00,,---,0.00,VWS V13.00,2013-02-28 04:20:00,
2013-02-27 20:25:00,34.4,27.6,30.29,WNW,288,0.0,3.0,76,0.00,,---,0.00,VWS V13.00,2013-02-28 04:25:00,
2013-02-27 20:30:00,34.3,27.5,30.29,WNW,288,1.0,1.0,76,0.00,,---,0.00,VWS V13.00,2013-02-28 04:30:00,
2013-02-27 20:35:00,34.3,27.5,30.28,WNW,288,1.0,2.0,76,0.00,,---,0.00,VWS V13.00,2013-02-28 04:35:00,
2013-02-27 20:40:00,34.3,27.5,30.29,WNW,288,0.0,2.0,76,0.00,,---,0.00,VWS V13.00,2013-02-28 04:40:00,
2013-02-27 20:45:00,34.3,27.9,30.29,WNW,287,0.0,2.0,77,0.00,,---,0.00,VWS V13.00,2013-02-28 04:45:00,
2013-02-27 20:50:00,34.2,27.8,30.29,WNW,288,2.0,3.0,77,0.00,,---,0.00,VWS V13.00,2013-02-28 04:50:00,
2013-02-27 20:55:00,34.2,27.8,30.29,WNW,288,2.0,3.0,77,0.00,,---,0.00,VWS V13.00,2013-02-28 04:55:00,
2013-02-27 21:00:00,34.2,28.1,30.28,WNW,288,1.0,2.0,78,0.00,,---,0.00,VWS V13.00,2013-02-28 05:00:00,
2013-02-27 21:05:00,34.1,28.0,30.27,WNW,288,1.0,2.0,78,0.00,,---,0.00,VWS V13.00,2013-02-28 05:05:00,
2013-02-27 21:10:00,34.1,28.0,30.27,WNW,288,0.0,2.0,78,0.00,,---,0.00,VWS V13.00,2013-02-28 05:10:00,
2013-02-27 21:15:00,34.1,28.0,30.27,WNW,288,0.0,2.0,78,0.00,,---,0.00,VWS V13.00,2013-02-28 05:15:00,
2013-02-27 21:20:00,34.1,28.0,30.28,WNW,288,1.0,2.0,78,0.00,,---,0.00,VWS V13.00,2013-02-28 05:20:00,
2013-02-27 21:25:00,34.1,28.0,30.28,WNW,287,2.0,3.0,78,0.00,,---,0.00,VWS V13.00,2013-02-28 05:25:00,
2013-02-27 21:30:00,34.1,28.3,30.29,WNW,288,2.0,3.0,79,0.00,,---,0.00,VWS V13.00,2013-02-28 05:30:00,
2013-02-27 21:35:00,34.1,28.3,30.29,WNW,288,2.0,3.0,79,0.00,,---,0.00,VWS V13.00,2013-02-28 05:35:00,
2013-02-27 21:40:00,34.1,28.3,30.30,WNW,287,3.0,4.0,79,0.00,,---,0.00,VWS V13.00,2013-02-28 05:40:00,
2013-02-27 21:45:00,34.2,28.4,30.29,WNW,288,3.0,4.0,79,0.00,,---,0.00,VWS V13.00,2013-02-28 05:45:00,
2013-02-27 21:50:00,34.2,28.4,30.30,WNW,289,1.0,4.0,79,0.00,,---,0.00,VWS V13.00,2013-02-28 05:50:00,
2013-02-27 21:55:00,34.2,28.1,30.30,WNW,289,0.0,4.0,78,0.00,,---,0.00,VWS V13.00,2013-02-28 05:55:00,
2013-02-27 22:00:00,34.3,28.2,30.28,WNW,289,2.0,3.0,78,0.00,,---,0.00,VWS V13.00,2013-02-28 06:00:00,
2013-02-27 22:05:00,34.4,28.3,30.29,WNW,289,1.0,3.0,78,0.00,,---,0.00,VWS V13.00,2013-02-28 06:05:00,
2013-02-27 22:10:00,34.4,28.3,30.28,WNW,289,1.0,3.0,78,0.00,,---,0.00,VWS V13.00,2013-02-28 06:10:00,
2013-02-27 22:15:00,34.4,28.0,30.28,WNW,288,0.0,3.0,77,0.00,,---,0.00,VWS V13.00,2013-02-28 06:15:00,
2013-02-27 22:20:00,34.4,28.0,30.28,WNW,288,0.0,3.0,77,0.00,,---,0.00,VWS V13.00,2013-02-28 06:20:00,
2013-02-27 22:25:00,34.4,28.3,30.28,WNW,289,0.0,3.0,78,0.00,,---,0.00,VWS V13.00,2013-02-28 06:25:00,
2013-02-27 22:30:00,34.4,28.0,30.28,WNW,289,0.0,0.0,77,0.00,,---,0.00,VWS V13.00,2013-02-28 06:30:00,
2013-02-27 22:35:00,34.4,28.0,30.27,WNW,288,1.0,1.0,77,0.00,,---,0.00,VWS V13.00,2013-02-28 06:35:00,
2013-02-27 22:40:00,34.4,28.3,30.27,WNW,288,0.0,1.0,78,0.00,,---,0.00,VWS V13.00,2013-02-28 06:40:00,
2013-02-27 22:45:00,34.4,28.3,30.26,WNW,288,0.0,1.0,78,0.00,,---,0.00,VWS V13.00,2013-02-28 06:45:00,
2013-02-27 22:50:00,34.4,28.0,30.26,WNW,289,0.0,1.0,77,0.00,,---,0.00,VWS V13.00,2013-02-28 06:50:00,
2013-02-27 22:55:00,34.3,28.2,30.26,WNW,289,0.0,1.0,78,0.00,,---,0.00,VWS V13.00,2013-02-28 06:55:00,
2013-02-27 23:00:00,34.2,28.1,30.26,WNW,288,0.0,0.0,78,0.00,,---,0.00,VWS V13.00,2013-02-28 07:00:00,
2013-02-27 23:05:00,34.1,27.7,30.26,WNW,289,2.0,2.0,77,0.00,,---,0.00,VWS V13.00,2013-02-28 07:05:00,
2013-02-27 23:10:00,33.9,27.8,30.26,WNW,289,0.0,2.0,78,0.00,,---,0.00,VWS V13.00,2013-02-28 07:10:00,
2013-02-27 23:15:00,33.7,27.3,30.26,WNW,288,0.0,2.0,77,0.00,,---,0.00,VWS V13.00,2013-02-28 07:15:00,
2013-02-27 23:20:00,33.6,27.2,30.26,WNW,289,0.0,2.0,77,0.00,,---,0.00,VWS V13.00,2013-02-28 07:20:00,
2013-02-27 23:25:00,33.4,27.0,30.26,WNW,289,0.0,2.0,77,0.00,,---,0.00,VWS V13.00,2013-02-28 07:25:00,
2013-02-27 23:30:00,33.2,26.8,30.26,WNW,289,0.0,0.0,77,0.00,,---,0.00,VWS V13.00,2013-02-28 07:30:00,
2013-02-27 23:35:00,33.0,26.9,30.26,WNW,288,2.0,2.0,78,0.00,,---,0.00,VWS V13.00,2013-02-28 07:35:00,
2013-02-27 23:40:00,32.8,26.7,30.26,WNW,288,0.0,2.0,78,0.00,,---,0.00,VWS V13.00,2013-02-28 07:40:00,
2013-02-27 23:45:00,32.6,26.5,30.26,WNW,289,0.0,2.0,78,0.00,,---,0.00,VWS V13.00,2013-02-28 07:45:00,
2013-02-27 23:50:00,32.4,26.3,30.27,WNW,289,1.0,2.0,78,0.00,,---,0.00,VWS V13.00,2013-02-28 07:50:00,
2013-02-27 23:55:00,32.2,26.4,30.27,WNW,288,2.0,3.0,79,0.00,,---,0.00,VWS V13.00,2013-02-28 07:55:00,